User: anonymous   Login
Location: El Limón
(10.3059°N, 67.6321°W)
Time: 01:17:11
(UTC+00:00)
Language:

PAYLOAD B - Orbit

View from above orbital plane
View from above orbital plane
View from above satellite
View from above satellite

Ground track
Ground track

The orbit data is extracted from the following two-line orbital elements,

1 27431U 02024B   24175.69565544  .00000097  00000-0  80414-4 0  9995
2 27431  99.0534 214.2829 0016419 114.1020 246.1869 14.09990344137580
Epoch (UTC): 23 June 2024 16:41:44
Eccentricity: 0.0016419
inclination: 99.0534°
perigee height: 847 km
apogee height: 871 km
right ascension of ascending node: 214.2829°
argument of perigee: 114.1020°
revolutions per day: 14.09990344
mean anomaly at epoch: 246.1869°
orbit number at epoch: 13758

The dashed part of the orbit path shows where the satellite is in the earth's shadow,  

DLR